Miscellaneous Local Product
Issued by NWS North Platte, NE

Home | Current Version | Previous Version | Text Only | Print | Product List | Glossary On
Versions: 1 2 3 4 5 6 7 8 9 10 11 12 13 14 15 16 17 18 19 20 21 22 23 24 25 26 27 28 29 30 31 32 33 34 35 36 37 38 39 40 41 42 43 44 45 46 47 48 49 50
939
AXUS43 KLBF 230510
MISLBF


WESTERN AND NORTH CENTRAL NEBRASKA HOURLY WEATHER ROUNDUP
NATIONAL WEATHER SERVICE NORTH PLATTE NE
1200 AM CDT SUN JUL 23 2017

NOTE: "FAIR" INDICATES FEW OR NO CLOUDS BELOW 12,000 FEET WITH NO
SIGNIFICANT WEATHER AND/OR OBSTRUCTIONS TO VISIBILITY.

NOTE: STATIONS NOT REPORTING VARIABLES SUCH AS SKY/WEATHER OR
PRESSURE ARE PROVIDED BY RAWS AND APRS NETWORKS AND ARE NOT UNDER
NATIONAL WEATHER SERVICE QUALITY CONTROL.

...OBSERVATIONS IN AND NEAR THE EASTERN PANHANDLE OF NEBRASKA...

CITY           SKY/WX    TMP DP  RH WIND       PRES   REMARKS
PINE RIDGE     CLEAR     63  60  90 CALM      30.08S
GORDON         FAIR      67  58  73 CALM      30.10S
CHADRON        CLEAR     71  52  50 S6        30.07S
ALLIANCE       CLEAR     66  45  46 E3        30.12R
SIDNEY         CLOUDY    63  48  58 SW7       30.16S
CRESCENT LAKE    N/A     70  48  45 CALM        N/A
$$

...OBSERVATIONS IN NORTHERN NEBRASKA AND FAR SOUTHERN SOUTH DAKOTA...

CITY           SKY/WX    TMP DP  RH WIND       PRES   REMARKS
WINNER         FAIR      74  50  42 N6        29.99R
VALENTINE      CLEAR     77  49  37 N7        30.02R
THEDFORD       CLEAR     68  53  58 W3        30.07R
AINSWORTH      PTCLDY    72  60  65 SW9       30.02R
O`NEILL        CLEAR     67  64  89 SW7       29.98S
ORD            CLEAR     66  62  87 SW5       30.00R
BROKEN BOW     CLEAR     64  61  90 CALM      30.05R
VALENTINE NWR    N/A     77  49  37 W9          N/A
HALSEY           N/A     75  50  41 CALM        N/A
BUTTE            N/A     71  63  75 NE3         N/A
CHAMBERS         N/A     67  64  90 CALM        N/A
EWING            N/A     65  64  95 CALM        N/A
$$

...OBSERVATIONS IN SOUTHWEST NEBRASKA AND FAR NORTHEAST COLORADO...

CITY           SKY/WX    TMP DP  RH WIND       PRES   REMARKS
HOLYOKE        FAIR      63  55  77 CALM      30.14R
IMPERIAL       CLEAR     69  54  58 CALM      30.10R
OGALLALA       CLEAR     65  50  58 W3        30.10S
NORTH PLATTE   CLEAR     64  59  83 CALM      30.07R
MCCOOK         CLEAR     69  61  75 N5        30.04R
LEXINGTON      CLEAR     68  65  92 E5        30.05R
STAPLETON        N/A     68  55  63 CALM        N/A
GOTHENBURG       N/A     71  60  69 CALM        N/A
CALLAWAY         N/A     64  61  90 CALM        N/A
$$

...OBSERVATIONS IN CENTRAL LINCOLN COUNTY AREA...

CITY           SKY/WX    TMP DP  RH WIND       PRES   REMARKS
N.P. AIRPORT   CLEAR     64  59  83 CALM      30.07R
N.P. DOWNTOWN    N/A     69  59  69 CALM        N/A
N.P. SOUTHEAST   N/A     71  56  59 CALM        N/A
N.P. HILLCREST   N/A     71  54  55 S3          N/A
$$

...SOME OBSERVATIONS FROM AROUND THE REGION...

CITY           SKY/WX    TMP DP  RH WIND       PRES   REMARKS
DENVER         CLOUDY    72  57  59 S13       30.18F
LIMON          CLOUDY    61  57  87 CALM      30.24R
ASPEN          CLOUDY    62  48  60 S7        30.36S
LARAMIE        PTCLDY    63  46  54 S8        30.34R
CASPER         CLEAR     62  30  29 NE6       30.18S
CHEYENNE       CLEAR     68  46  45 S7        30.26S
SCOTTSBLUFF    CLEAR     68  54  60 E6        30.12R
GRAND ISLAND   CLOUDY    70  69  97 NW7       30.00F
OMAHA          PTCLDY    76  71  85 S3        29.93R
SIOUX FALLS    CLEAR     73  67  81 CALM      29.92S
PIERRE         CLEAR     68  47  46 NE10      29.98R
RAPID CITY     CLEAR     66  44  45 NE7       30.10R
BISMARCK       CLEAR     65  56  72 NE6       30.02S
KANSAS CITY    CLOUDY    73  69  87 E8        29.95F
HILL CITY      CLOUDY    71  69  93 N3        29.98F
WICHITA        MOCLDY    74  70  87 NE14      29.94F
DODGE CITY     CLEAR     74  64  71 E9        30.00S
OKLAHOMA CITY  PTCLDY    84  71  65 S8        29.90S
DALLAS         CLEAR     89  70  53 S10       29.89R HX  94
AMARILLO       CLOUDY    77  59  53 S12       30.07R
$$




USA.gov is the U.S. government's official web portal to all federal, state and local government web resources and services.